Location: Brunembert
(50.7122°N, 1.8935°E)
Time: 03:01:16
(UTC+00:00)

SL-4 R/B - Pass Details

Date: 22 April 2021
Orbit: 427 x 663 km, 51.6° (Epoch: 06 May)

Event Time Altitude Azimuth Distance (km) Brightness Sun altitude
Rises 23:03:09 0° 271° (W) 2,877 5.9 -25.9°
Reaches altitude 10° 23:05:24 10° 273° (W) 2,002 5.0 -26.0°
Enters shadow 23:09:11 58° 289° (WNW) 751 2.7 -26.1°
